| time (UTC) | temp F | wind direction | speed MPH | gust MPH | rain 1hr in | rain 24hr in | rain mn in | humidity % | barometer mb |
| 20260508224544 | 56 | 202 | 3.0 | 8.0 | 0.03 | 0.08 | 0.06 | 96 | 1033.0 |
| 20260508223544 | 56 | 202 | 2.0 | 4.0 | 0.03 | 0.08 | 0.06 | 96 | 1032.9 |
| 20260508222544 | 55 | 202 | 4.0 | 7.0 | 0.05 | 0.08 | 0.06 | 96 | 1032.8 |
| 20260508221522 | 55 | 202 | 7.0 | 9.0 | 0.03 | 0.06 | 0.05 | 96 | 1032.8 |
| 20260508220605 | 56 | 206 | 7.0 | 10.0 | 0.03 | 0.06 | 0.05 | 96 | 1032.7 |
| 20260508215552 | 55 | 197 | 7.0 | 9.0 | 0.03 | 0.05 | 0.03 | 96 | 1032.7 |
| 20260508214545 | 55 | 202 | 11.0 | 14.0 | 0.03 | 0.05 | 0.03 | 96 | 1032.5 |
| 20260508213545 | 55 | 187 | 5.0 | 10.0 | 0.03 | 0.05 | 0.03 | 96 | 1032.5 |
| 20260508212604 | 55 | 214 | 7.0 | 9.0 | 0.02 | 0.03 | 0.02 | 96 | 1032.5 |
| 20260508211544 | 55 | 201 | 8.0 | 10.0 | 0.02 | 0.03 | 0.02 | 96 | 1032.4 |
| 20260508210522 | 55 | 220 | 9.0 | 10.0 | 0.02 | 0.03 | 0.02 | 96 | 1032.3 |
| 20260508205544 | 55 | 214 | 8.0 | 11.0 | 0.00 | 0.02 | 0.00 | 96 | 1032.2 |
| 20260508204713 | 55 | 206 | 7.0 | 11.0 | 0.00 | 0.02 | 0.00 | 96 | 1032.0 |
| 20260508203544 | 55 | 219 | 8.0 | 11.0 | 0.00 | 0.02 | 0.00 | 96 | 1032.0 |
| 20260508202544 | 55 | 213 | 9.0 | 12.0 | 0.00 | 0.02 | 0.00 | 96 | 1031.9 |
| 20260508201544 | 55 | 204 | 10.0 | 12.0 | 0.00 | 0.02 | 0.00 | 96 | 1031.7 |
| 20260508200544 | 55 | 211 | 10.0 | 12.0 | 0.00 | 0.02 | 0.00 | 95 | 1031.7 |
| 20260508195522 | 55 | 215 | 9.0 | 11.0 | 0.00 | 0.02 | 0.00 | 95 | 1031.7 |
| 20260508194544 | 55 | 214 | 8.0 | 12.0 | 0.00 | 0.02 | 0.00 | 95 | 1031.6 |
| 20260508193532 | 55 | 205 | 9.0 | 13.0 | 0.00 | 0.02 | 0.00 | 95 | 1031.6 |
| 20260508192544 | 55 | 204 | 9.0 | 12.0 | 0.00 | 0.02 | 0.00 | 95 | 1031.5 |
| 20260508191545 | 55 | 211 | 6.0 | 8.0 | 0.00 | 0.02 | 0.00 | 95 | 1031.4 |
| 20260508190544 | 55 | 205 | 9.0 | 11.0 | 0.00 | 0.02 | 0.00 | 95 | 1031.4 |
| 20260508185544 | 55 | 204 | 11.0 | 16.0 | 0.00 | 0.02 | 0.00 | 95 | 1031.4 |
| 20260508184522 | 55 | 223 | 9.0 | 12.0 | 0.00 | 0.02 | 0.00 | 95 | 1031.4 |
| 20260508183545 | 55 | 221 | 9.0 | 13.0 | 0.00 | 0.02 | 0.00 | 95 | 1031.4 |
| 20260508182532 | 55 | 216 | 10.0 | 12.0 | 0.00 | 0.02 | 0.00 | 95 | 1031.5 |
| 20260508181544 | 55 | 213 | 8.0 | 11.0 | 0.00 | 0.02 | 0.00 | 95 | 1031.5 |
| 20260508180544 | 55 | 211 | 9.0 | 11.0 | 0.00 | 0.02 | 0.00 | 95 | 1031.5 |
| 20260508175608 | 55 | 211 | 10.0 | 12.0 | 0.00 | 0.02 | 0.00 | 95 | 1031.5 |
| 20260508174544 | 55 | 218 | 9.0 | 14.0 | 0.00 | 0.02 | 0.00 | 94 | 1031.5 |
| 20260508173542 | 55 | 217 | 9.0 | 13.0 | 0.00 | 0.02 | 0.00 | 94 | 1031.7 |
| 20260508172604 | 55 | 210 | 10.0 | 11.0 | 0.00 | 0.02 | 0.00 | 94 | 1031.7 |
| 20260508171532 | 55 | 214 | 11.0 | 14.0 | 0.00 | 0.02 | 0.00 | 93 | 1031.7 |
| 20260508170544 | 56 | 207 | 9.0 | 12.0 | 0.00 | 0.02 | 0.00 | 93 | 1031.7 |
| 20260508165544 | 56 | 202 | 7.0 | 9.0 | 0.00 | 0.02 | 0.00 | 93 | 1031.8 |
| 20260508164604 | 56 | 219 | 10.0 | 12.0 | 0.00 | 0.02 | 0.00 | 93 | 1031.8 |
| 20260508163544 | 56 | 208 | 9.0 | 11.0 | 0.00 | 0.02 | 0.00 | 93 | 1031.8 |
| 20260508162522 | 56 | 207 | 8.0 | 10.0 | 0.00 | 0.02 | 0.00 | 93 | 1031.8 |
| 20260508161556 | 56 | 224 | 4.0 | 6.0 | 0.00 | 0.02 | 0.00 | 93 | 1031.9 |
| 20260508160532 | 56 | 217 | 7.0 | 9.0 | 0.00 | 0.02 | 0.00 | 93 | 1032.0 |
| 20260508155545 | 56 | 206 | 9.0 | 12.0 | 0.00 | 0.02 | 0.00 | 93 | 1031.9 |
| 20260508154544 | 56 | 211 | 9.0 | 11.0 | 0.00 | 0.02 | 0.00 | 93 | 1031.9 |
| 20260508153556 | 56 | 212 | 10.0 | 12.0 | 0.00 | 0.02 | 0.00 | 94 | 1031.9 |
| 20260508152556 | 55 | 215 | 10.0 | 12.0 | 0.00 | 0.02 | 0.00 | 94 | 1031.9 |
| 20260508151522 | 55 | 225 | 9.0 | 11.0 | 0.00 | 0.02 | 0.00 | 94 | 1031.9 |
| 20260508150556 | 55 | 223 | 7.0 | 9.0 | 0.00 | 0.02 | 0.00 | 94 | 1032.0 |
| 20260508145532 | 56 | 229 | 6.0 | 9.0 | 0.00 | 0.02 | 0.00 | 95 | 1032.0 |
| 20260508144557 | 56 | 218 | 7.0 | 9.0 | 0.00 | 0.02 | 0.00 | 95 | 1032.0 |
| 20260508143605 | 56 | 213 | 7.0 | 9.0 | 0.00 | 0.02 | 0.00 | 94 | 1032.1 |
| 20260508142556 | 56 | 208 | 11.0 | 13.0 | 0.00 | 0.02 | 0.02 | 94 | 1032.1 |
| 20260508141556 | 56 | 212 | 10.0 | 13.0 | 0.00 | 0.02 | 0.02 | 94 | 1032.2 |
| 20260508140522 | 56 | 212 | 9.0 | 11.0 | 0.02 | 0.02 | 0.02 | 94 | 1032.3 |
| 20260508135556 | 56 | 204 | 9.0 | 11.0 | 0.02 | 0.02 | 0.02 | 94 | 1032.3 |
| 20260508134552 | 56 | 205 | 7.0 | 11.0 | 0.02 | 0.02 | 0.02 | 94 | 1032.4 |
| 20260508133556 | 56 | 196 | 11.0 | 14.0 | 0.02 | 0.02 | 0.02 | 94 | 1032.5 |
| 20260508132544 | 56 | 206 | 16.0 | 22.0 | 0.02 | 0.02 | 0.02 | 94 | 1032.5 |
| 20260508131556 | 57 | 209 | 15.0 | 20.0 | 0.02 | 0.02 | 0.02 | 93 | 1032.5 |
| 20260508130556 | 57 | 203 | 12.0 | 17.0 | 0.00 | 0.00 | 0.00 | 93 | 1032.5 |
| 20260508125542 | 57 | 208 | 6.0 | 7.0 | 0.00 | 0.00 | 0.00 | 93 | 1032.6 |
| 20260508124556 | 57 | 204 | 9.0 | 11.0 | 0.00 | 0.00 | 0.00 | 93 | 1032.6 |
| 20260508123532 | 57 | 204 | 11.0 | 16.0 | 0.00 | 0.00 | 0.00 | 93 | 1032.6 |
| 20260508122556 | 57 | 202 | 9.0 | 11.0 | 0.00 | 0.00 | 0.00 | 93 | 1032.6 |
| 20260508121544 | 57 | 202 | 6.0 | 10.0 | 0.00 | 0.00 | 0.00 | 92 | 1032.6 |
| 20260508120556 | 58 | 202 | 7.0 | 9.0 | 0.00 | 0.00 | 0.00 | 92 | 1032.7 |
| 20260508115556 | 58 | 199 | 9.0 | 11.0 | 0.00 | 0.00 | 0.00 | 90 | 1032.7 |
| 20260508114522 | 58 | 191 | 13.0 | 15.0 | 0.00 | 0.00 | 0.00 | 87 | 1032.7 |
| 20260508113556 | 58 | 211 | 11.0 | 13.0 | 0.00 | 0.00 | 0.00 | 86 | 1032.6 |
| 20260508112532 | 58 | 202 | 8.0 | 9.0 | 0.00 | 0.00 | 0.00 | 85 | 1032.4 |
| 20260508111556 | 58 | 209 | 9.0 | 11.0 | 0.00 | 0.00 | 0.00 | 84 | 1032.4 |
| 20260508110604 | 59 | 206 | 5.0 | 9.0 | 0.00 | 0.00 | 0.00 | 84 | 1032.4 |
| 20260508105556 | 59 | 202 | 4.0 | 7.0 | 0.00 | 0.00 | 0.00 | 83 | 1032.4 |
| 20260508104556 | 59 | 196 | 7.0 | 11.0 | 0.00 | 0.00 | 0.00 | 83 | 1032.5 |
| 20260508103522 | 59 | 199 | 10.0 | 15.0 | 0.00 | 0.00 | 0.00 | 83 | 1032.5 |
| 20260508102556 | 59 | 200 | 11.0 | 13.0 | 0.00 | 0.00 | 0.00 | 82 | 1032.4 |
| 20260508101532 | 59 | 202 | 11.0 | 12.0 | 0.00 | 0.00 | 0.00 | 82 | 1032.3 |
| 20260508100636 | 59 | 200 | 10.0 | 12.0 | 0.00 | 0.00 | 0.00 | 81 | 1032.2 |
| 20260508095544 | 60 | 210 | 12.0 | 15.0 | 0.00 | 0.00 | 0.00 | 80 | 1032.2 |
| 20260508094556 | 60 | 211 | 10.0 | 12.0 | 0.00 | 0.00 | 0.00 | 80 | 1032.2 |
| 20260508093556 | 60 | 198 | 9.0 | 10.0 | 0.00 | 0.00 | 0.00 | 80 | 1032.2 |
| 20260508092522 | 60 | 191 | 11.0 | 14.0 | 0.00 | 0.00 | 0.00 | 80 | 1032.1 |
| 20260508091556 | 60 | 202 | 9.0 | 11.0 | 0.00 | 0.00 | 0.00 | 82 | 1032.1 |
| 20260508090532 | 60 | 202 | 6.0 | 9.0 | 0.00 | 0.00 | 0.00 | 83 | 1032.1 |
| 20260508085555 | 60 | 188 | 7.0 | 11.0 | 0.00 | 0.00 | 0.00 | 82 | 1032.0 |
| 20260508084544 | 60 | 178 | 10.0 | 11.0 | 0.00 | 0.00 | 0.00 | 83 | 1031.9 |
| 20260508083556 | 60 | 172 | 10.0 | 13.0 | 0.00 | 0.00 | 0.00 | 84 | 1031.9 |
| 20260508082556 | 59 | 179 | 6.0 | 9.0 | 0.00 | 0.00 | 0.00 | 83 | 1031.9 |
| 20260508081522 | 58 | 202 | 5.0 | 11.0 | 0.00 | 0.00 | 0.00 | 84 | 1031.9 |
| 20260508080616 | 58 | 202 | 1.0 | 5.0 | 0.00 | 0.00 | 0.00 | 84 | 1031.8 |
| 20260508075532 | 59 | 202 | 0.0 | 3.0 | 0.00 | 0.00 | 0.00 | 82 | 1031.7 |
| 20260508074556 | 60 | 202 | 4.0 | 5.0 | 0.00 | 0.00 | 0.00 | 81 | 1031.6 |
| 20260508073544 | 60 | 202 | 3.0 | 5.0 | 0.00 | 0.00 | 0.00 | 80 | 1031.6 |
| 20260508072608 | 61 | 198 | 5.0 | 8.0 | 0.00 | 0.00 | 0.00 | 79 | 1031.6 |
| 20260508071556 | 61 | 191 | 8.0 | 10.0 | 0.00 | 0.00 | 0.00 | 78 | 1031.6 |
| 20260508070522 | 61 | 188 | 10.0 | 12.0 | 0.00 | 0.00 | 0.00 | 79 | 1031.6 |
| 20260508065556 | 61 | 181 | 14.0 | 23.0 | 0.00 | 0.00 | 0.00 | 79 | 1031.7 |
| 20260508064532 | 61 | 177 | 16.0 | 21.0 | 0.00 | 0.00 | 0.00 | 81 | 1031.7 |
| 20260508063555 | 61 | 171 | 12.0 | 14.0 | 0.00 | 0.00 | 0.00 | 82 | 1031.7 |
| 20260508062544 | 61 | 182 | 9.0 | 12.0 | 0.00 | 0.00 | 0.00 | 82 | 1031.8 |
| 20260508061556 | 62 | 166 | 15.0 | 18.0 | 0.00 | 0.00 | 0.00 | 81 | 1031.7 |
| 20260508060616 | 62 | 150 | 11.0 | 14.0 | 0.00 | 0.00 | 0.00 | 79 | 1031.7 |
| 20260508055525 | 63 | 172 | 12.0 | 16.0 | 0.00 | 0.00 | 0.00 | 78 | 1031.7 |
| 20260508054555 | 63 | 160 | 11.0 | 13.0 | 0.00 | 0.00 | 0.00 | 76 | 1031.7 |
| 20260508053533 | 63 | 174 | 9.0 | 13.0 | 0.00 | 0.00 | 0.00 | 74 | 1031.7 |
| 20260508052556 | 63 | 153 | 12.0 | 17.0 | 0.00 | 0.00 | 0.00 | 77 | 1031.7 |
| 20260508051544 | 62 | 166 | 11.0 | 15.0 | 0.00 | 0.00 | 0.00 | 76 | 1031.8 |
| 20260508050555 | 62 | 146 | 9.0 | 10.0 | 0.00 | 0.00 | 0.00 | 76 | 1031.8 |
| 20260508045556 | 63 | 158 | 10.0 | 14.0 | 0.00 | 0.00 | 0.00 | 74 | 1031.8 |
| 20260508044522 | 63 | 176 | 10.0 | 16.0 | 0.00 | 0.00 | 0.00 | 71 | 1031.8 |
| 20260508043616 | 64 | 180 | 10.0 | 12.0 | 0.00 | 0.00 | 0.00 | 69 | 1031.9 |
| 20260508042533 | 64 | 187 | 9.0 | 11.0 | 0.00 | 0.00 | 0.00 | 67 | 1031.8 |
| 20260508041556 | 63 | 193 | 13.0 | 15.0 | 0.00 | 0.00 | 0.00 | 70 | 1031.9 |
| 20260508040544 | 63 | 161 | 12.0 | 13.0 | 0.00 | 0.00 | 0.00 | 70 | 1032.1 |
| 20260508035616 | 63 | 176 | 12.0 | 16.0 | 0.00 | 0.00 | 0.00 | 69 | 1032.1 |
| 20260508034555 | 63 | 184 | 10.0 | 13.0 | 0.00 | 0.00 | 0.00 | 69 | 1032.3 |
| 20260508033522 | 63 | 206 | 9.0 | 12.0 | 0.00 | 0.00 | 0.00 | 69 | 1032.4 |
| 20260508032555 | 63 | 214 | 9.0 | 11.0 | 0.00 | 0.00 | 0.00 | 69 | 1032.5 |
| 20260508031533 | 62 | 200 | 10.0 | 13.0 | 0.00 | 0.00 | 0.00 | 70 | 1032.6 |
| 20260508030616 | 62 | 179 | 10.0 | 13.0 | 0.00 | 0.00 | 0.00 | 70 | 1032.8 |
| 20260508025604 | 62 | 177 | 13.0 | 16.0 | 0.00 | 0.00 | 0.00 | 69 | 1033.0 |
| 20260508024615 | 62 | 179 | 12.0 | 15.0 | 0.00 | 0.00 | 0.00 | 69 | 1033.2 |
| 20260508023555 | 62 | 183 | 12.0 | 15.0 | 0.00 | 0.00 | 0.00 | 70 | 1033.4 |
| 20260508022522 | 61 | 179 | 13.0 | 15.0 | 0.00 | 0.00 | 0.00 | 69 | 1033.5 |
| 20260508021555 | 61 | 181 | 11.0 | 16.0 | 0.00 | 0.00 | 0.00 | 69 | 1033.6 |
| 20260508020532 | 60 | 200 | 13.0 | 17.0 | 0.00 | 0.00 | 0.00 | 69 | 1033.8 |
| 20260508015556 | 60 | 176 | 14.0 | 16.0 | 0.00 | 0.00 | 0.00 | 72 | 1033.9 |
| 20260508014544 | 60 | 195 | 14.0 | 16.0 | 0.00 | 0.00 | 0.00 | 72 | 1034.0 |
| 20260508013555 | 60 | 197 | 11.0 | 14.0 | 0.00 | 0.00 | 0.00 | 71 | 1034.0 |
| 20260508012556 | 60 | 190 | 11.0 | 14.0 | 0.00 | 0.00 | 0.00 | 71 | 1034.1 |
| 20260508011522 | 60 | 191 | 11.0 | 15.0 | 0.00 | 0.00 | 0.00 | 71 | 1034.1 |
| 20260508010615 | 60 | 194 | 14.0 | 16.0 | 0.00 | 0.00 | 0.00 | 71 | 1034.1 |
| 20260508005533 | 60 | 210 | 11.0 | 13.0 | 0.00 | 0.00 | 0.00 | 70 | 1034.1 |
| 20260508004556 | 60 | 205 | 11.0 | 14.0 | 0.00 | 0.00 | 0.00 | 70 | 1034.1 |
| 20260508003544 | 59 | 213 | 13.0 | 14.0 | 0.00 | 0.00 | 0.00 | 70 | 1034.2 |
| 20260508002555 | 59 | 210 | 13.0 | 14.0 | 0.00 | 0.00 | 0.00 | 71 | 1034.2 |
| 20260508001555 | 59 | 201 | 12.0 | 14.0 | 0.00 | 0.00 | 0.00 | 72 | 1034.2 |
| 20260508000523 | 59 | 187 | 13.0 | 16.0 | 0.00 | 0.00 | 0.00 | 71 | 1034.2 |
| 20260507235556 | 59 | 204 | 10.0 | 14.0 | 0.00 | 0.00 | 0.00 | 71 | 1034.1 |
| 20260507234532 | 59 | 214 | 11.0 | 13.0 | 0.00 | 0.00 | 0.00 | 70 | 1034.1 |
| 20260507233555 | 59 | 191 | 11.0 | 15.0 | 0.00 | 0.00 | 0.00 | 70 | 1034.0 |
| 20260507232544 | 59 | 205 | 12.0 | 15.0 | 0.00 | 0.00 | 0.00 | 71 | 1034.0 |
| 20260507231555 | 58 | 206 | 10.0 | 12.0 | 0.00 | 0.00 | 0.00 | 70 | 1033.9 |
| 20260507230555 | 58 | 204 | 8.0 | 11.0 | 0.00 | 0.00 | 0.00 | 71 | 1033.8 |
| 20260507225522 | 58 | 207 | 8.0 | 10.0 | 0.00 | 0.00 | 0.00 | 71 | 1033.8 |